This is the latest recevied weather packets stored in our database for station/object W6MAF. If no packets are shown the sender has not sent any weather packets the latest 10 day(s).
| Time | Temp. | Humidity | Pressure | Rain* | Wind** | Luminosity | Snow |
|---|---|---|---|---|---|---|---|
| 1788312678 | 22.22° C | 11% | - | 0 mm | 3.58 m/s, 134° | - | - |
| 1788312381 | 22.78° C | 6% | - | 0 mm | 4.02 m/s, 162° | - | - |
| 1788312083 | 22.78° C | 10% | - | 0 mm | 4.92 m/s, 146° | - | - |
| 1788311782 | 23.33° C | 8% | - | 0 mm | 3.58 m/s, 174° | - | - |
| 1788311484 | 23.33° C | 6% | - | 0 mm | 5.81 m/s, 149° | - | - |
| 1788311186 | 23.89° C | 5% | - | 0 mm | 2.68 m/s, 155° | - | - |
| 1788310889 | 23.89° C | 5% | - | 0 mm | 4.92 m/s, 191° | - | - |
| 1788310591 | 23.89° C | 5% | - | 0 mm | 8.05 m/s, 172° | - | - |
| 1788310293 | 23.89° C | 5% | - | 0 mm | 5.36 m/s, 169° | - | - |
| 1788309992 | 24.44° C | 5% | - | 0 mm | 5.81 m/s, 170° | - | - |
| 1788309694 | 24.44° C | 5% | - | 0 mm | 4.92 m/s, 176° | - | - |
| 1788309397 | 24.44° C | 5% | - | 0 mm | 6.26 m/s, 172° | - | - |
| 1788309099 | 24.44° C | 4% | - | 0 mm | 6.71 m/s, 158° | - | - |
| 1788308839 | 25° C | 4% | - | 0 mm | 4.92 m/s, 187° | - | - |
| 1788308801 | 25° C | 4% | - | 0 mm | 4.92 m/s, 187° | - | - |
| 1788308505 | 25° C | 4% | - | 0 mm | 9.39 m/s, 195° | - | - |
| 1788308203 | 25° C | 4% | - | 0 mm | 8.94 m/s, 222° | - | - |
| 1788307905 | 25° C | 4% | - | 0 mm | 9.39 m/s, 191° | - | - |
| 1788307627 | 25° C | 4% | - | 0 mm | 9.83 m/s, 190° | - | - |
| 1788307309 | 25° C | 4% | - | 0 mm | 7.6 m/s, 193° | - | - |
| 1788307309 | 25° C | 4% | - | 0 mm | 7.6 m/s, 193° | - | - |
| 1788307012 | 25° C | 4% | - | 0 mm | 9.39 m/s, 179° | - | - |
| 1788306714 | 25° C | 4% | - | 0 mm | 9.39 m/s, 183° | - | - |
| 1788306115 | 25° C | 5% | - | 0 mm | 10.73 m/s, 176° | - | - |
| 1788305817 | 25° C | 5% | - | 0 mm | 11.18 m/s, 191° | - | - |
* Rain latest hour (hover to see other rain measurements)
** Current wind speed in m/s (hover to see current wind gust speed)